Time,TemperatureF,DewpointF,PressureIn,WindDirection,WindDirectionDegrees,WindSpeedMPH,WindSpeedGustMPH,Humidity,HourlyPrecipIn,Conditions,Clouds,dailyrainin,SolarRadiationWatts/m^2,SoftwareType,DateUTC
2013-07-31 03:12:00,66.0,65.0,-100.00,SE,146,2.0,4.0,96,-99.99,,,0.12,0.000000,,2013-07-31 08:12:00,
2013-07-31 03:22:00,66.0,65.0,-100.00,SE,146,2.0,4.0,96,-99.99,,,0.12,0.000000,,2013-07-31 08:22:00,
2013-07-31 03:32:00,66.0,65.0,-100.00,SE,146,2.0,4.0,96,-99.99,,,0.12,0.000000,,2013-07-31 08:32:00,
2013-07-31 03:42:00,66.0,65.0,-100.00,SE,146,2.0,4.0,96,-99.99,,,0.12,0.000000,,2013-07-31 08:42:00,
2013-07-31 04:12:00,66.0,65.0,-100.00,SSE,149,2.0,3.0,97,0.00,,,0.12,0.000000,,2013-07-31 09:12:00,
2013-07-31 04:22:00,66.0,65.0,-100.00,SSE,149,2.0,3.0,97,0.00,,,0.12,0.000000,,2013-07-31 09:22:00,
2013-07-31 04:32:00,66.0,65.0,-100.00,SSE,149,2.0,3.0,97,0.00,,,0.12,0.000000,,2013-07-31 09:32:00,
2013-07-31 04:43:00,66.0,65.0,-100.00,SSE,149,2.0,3.0,97,0.00,,,0.12,0.000000,,2013-07-31 09:43:00,
2013-07-31 05:12:00,66.0,65.0,-100.00,SSE,152,2.0,3.0,97,0.00,,,0.12,0.000000,,2013-07-31 10:12:00,
2013-07-31 05:22:00,66.0,65.0,-100.00,SSE,152,2.0,3.0,97,0.00,,,0.12,0.000000,,2013-07-31 10:22:00,
2013-07-31 05:32:00,66.0,65.0,-100.00,SSE,152,2.0,3.0,97,0.00,,,0.12,0.000000,,2013-07-31 10:32:00,
2013-07-31 05:44:00,66.0,65.0,-100.00,SSE,152,2.0,3.0,97,0.00,,,0.12,0.000000,,2013-07-31 10:44:00,
2013-07-31 06:22:00,66.0,65.0,-100.00,South,176,1.0,3.0,97,0.00,,,-99.99,0.000000,,2013-07-31 11:22:00,
2013-07-31 06:33:00,66.0,65.0,-100.00,South,176,1.0,3.0,97,0.00,,,-99.99,0.000000,,2013-07-31 11:33:00,
2013-07-31 06:43:00,66.0,65.0,-100.00,South,176,1.0,3.0,97,0.00,,,-99.99,0.000000,,2013-07-31 11:43:00,
2013-07-31 07:22:00,66.0,65.0,-100.00,SSE,148,2.0,3.0,97,0.00,,,0.12,4.000000,,2013-07-31 12:22:00,
2013-07-31 07:33:00,66.0,65.0,-100.00,SSE,148,2.0,3.0,97,0.00,,,0.12,4.000000,,2013-07-31 12:33:00,
2013-07-31 07:43:00,66.0,65.0,-100.00,SSE,148,2.0,3.0,97,0.00,,,0.12,4.000000,,2013-07-31 12:43:00,
2013-07-31 09:23:00,69.0,67.0,-100.00,SSW,199,2.0,4.0,93,-99.99,,,0.12,79.000000,,2013-07-31 14:23:00,
2013-07-31 09:34:00,69.0,67.0,-100.00,SSW,199,2.0,4.0,93,-99.99,,,0.12,79.000000,,2013-07-31 14:34:00,
2013-07-31 09:43:00,69.0,67.0,-100.00,SSW,199,2.0,4.0,93,-99.99,,,0.12,79.000000,,2013-07-31 14:43:00,
2013-07-31 10:12:00,69.0,67.0,-100.00,SSW,197,2.0,4.0,92,0.00,,,0.12,80.000000,,2013-07-31 15:12:00,
2013-07-31 10:22:00,69.0,67.0,-100.00,SSW,197,2.0,4.0,92,0.00,,,0.12,80.000000,,2013-07-31 15:22:00,
2013-07-31 10:33:00,69.0,67.0,-100.00,SSW,197,2.0,4.0,92,0.00,,,0.12,80.000000,,2013-07-31 15:33:00,
2013-07-31 10:43:00,69.0,67.0,-100.00,SSW,197,2.0,4.0,92,0.00,,,0.12,80.000000,,2013-07-31 15:43:00,
2013-07-31 11:22:00,70.0,68.0,-100.00,SSW,206,2.0,5.0,92,0.00,,,0.12,106.000000,,2013-07-31 16:22:00,
2013-07-31 11:33:00,70.0,68.0,-100.00,SSW,206,2.0,5.0,92,0.00,,,0.12,106.000000,,2013-07-31 16:33:00,
2013-07-31 11:44:00,70.0,68.0,-100.00,SSW,206,2.0,5.0,92,0.00,,,0.12,106.000000,,2013-07-31 16:44:00,
2013-07-31 12:13:00,72.0,69.0,-100.00,SW,215,2.0,4.0,89,0.00,,,0.12,135.000000,,2013-07-31 17:13:00,
2013-07-31 12:22:00,72.0,69.0,-100.00,SW,215,2.0,4.0,89,0.00,,,0.12,135.000000,,2013-07-31 17:22:00,
2013-07-31 12:33:00,72.0,69.0,-100.00,SW,215,2.0,4.0,89,0.00,,,0.12,135.000000,,2013-07-31 17:33:00,
2013-07-31 12:43:00,72.0,69.0,-100.00,SW,215,2.0,4.0,89,0.00,,,0.12,135.000000,,2013-07-31 17:43:00,
2013-07-31 13:13:00,71.0,67.0,-100.00,WSW,249,1.0,3.0,88,0.00,,,0.12,98.000000,,2013-07-31 18:13:00,
2013-07-31 13:23:00,71.0,67.0,-100.00,WSW,249,1.0,3.0,88,0.00,,,0.12,98.000000,,2013-07-31 18:23:00,
2013-07-31 13:33:00,71.0,67.0,-100.00,WSW,249,1.0,3.0,88,0.00,,,0.12,98.000000,,2013-07-31 18:33:00,
2013-07-31 13:43:00,71.0,67.0,-100.00,WSW,249,1.0,3.0,88,0.00,,,0.12,98.000000,,2013-07-31 18:43:00,
2013-07-31 14:23:00,72.0,69.0,-100.00,NNE,14,1.0,2.0,89,0.00,,,-99.99,110.000000,,2013-07-31 19:23:00,
2013-07-31 14:33:00,72.0,69.0,-100.00,NNE,14,1.0,2.0,89,0.00,,,-99.99,110.000000,,2013-07-31 19:33:00,
2013-07-31 14:43:00,72.0,69.0,-100.00,NNE,14,1.0,2.0,89,0.00,,,-99.99,110.000000,,2013-07-31 19:43:00,
2013-07-31 15:23:00,72.0,69.0,-100.00,WNW,298,1.0,3.0,90,0.00,,,0.12,77.000000,,2013-07-31 20:23:00,
2013-07-31 15:32:00,72.0,69.0,-100.00,WNW,298,1.0,3.0,90,0.00,,,0.12,77.000000,,2013-07-31 20:32:00,
2013-07-31 15:43:00,72.0,69.0,-100.00,WNW,298,1.0,3.0,90,0.00,,,0.12,77.000000,,2013-07-31 20:43:00,
2013-07-31 16:22:00,72.0,68.0,-100.00,SW,214,1.0,2.0,88,0.00,,,-99.99,78.000000,,2013-07-31 21:22:00,
2013-07-31 16:32:00,72.0,68.0,-100.00,SW,214,1.0,2.0,88,0.00,,,-99.99,78.000000,,2013-07-31 21:32:00,
2013-07-31 16:43:00,72.0,68.0,-100.00,SW,214,1.0,2.0,88,0.00,,,-99.99,78.000000,,2013-07-31 21:43:00,
2013-07-31 17:22:00,73.0,69.0,-100.00,East,83,2.0,3.0,88,0.00,,,-99.99,91.000000,,2013-07-31 22:22:00,
2013-07-31 17:33:00,73.0,69.0,-100.00,East,83,2.0,3.0,88,0.00,,,-99.99,91.000000,,2013-07-31 22:33:00,
2013-07-31 17:43:00,73.0,69.0,-100.00,East,83,2.0,3.0,88,0.00,,,-99.99,91.000000,,2013-07-31 22:43:00,
2013-07-31 18:22:00,74.0,70.0,-100.00,West,277,0.0,3.0,86,0.00,,,-99.99,101.000000,,2013-07-31 23:22:00,
2013-07-31 18:32:00,74.0,70.0,-100.00,West,277,0.0,3.0,86,0.00,,,-99.99,101.000000,,2013-07-31 23:32:00,
2013-07-31 18:42:00,74.0,70.0,-100.00,West,277,0.0,3.0,86,0.00,,,-99.99,101.000000,,2013-07-31 23:42:00,
2013-07-31 19:12:00,74.0,70.0,-100.00,SE,133,1.0,2.0,87,0.00,,,-99.99,65.000000,,2013-08-01 00:12:00,
2013-07-31 19:22:00,74.0,70.0,-100.00,SE,133,1.0,2.0,87,0.00,,,-99.99,65.000000,,2013-08-01 00:22:00,
2013-07-31 19:32:00,74.0,70.0,-100.00,SE,133,1.0,2.0,87,0.00,,,-99.99,65.000000,,2013-08-01 00:32:00,
2013-07-31 19:43:00,74.0,70.0,-100.00,SE,133,1.0,2.0,87,0.00,,,-99.99,65.000000,,2013-08-01 00:43:00,
2013-07-31 20:12:00,71.0,69.0,-100.00,WNW,295,1.0,2.0,94,0.00,,,0.00,15.000000,,2013-08-01 01:12:00,
2013-07-31 20:22:00,71.0,69.0,-100.00,WNW,295,1.0,2.0,94,0.00,,,0.00,15.000000,,2013-08-01 01:22:00,
2013-07-31 20:33:00,71.0,69.0,-100.00,WNW,295,1.0,2.0,94,0.00,,,0.00,15.000000,,2013-08-01 01:33:00,
2013-07-31 20:43:00,71.0,69.0,-100.00,WNW,295,1.0,2.0,94,0.00,,,0.00,15.000000,,2013-08-01 01:43:00,
2013-07-31 21:12:00,70.0,69.0,-100.00,ESE,119,1.0,2.0,97,0.00,,,-99.99,1.000000,,2013-08-01 02:12:00,
2013-07-31 21:22:00,70.0,69.0,-100.00,ESE,119,1.0,2.0,97,0.00,,,-99.99,1.000000,,2013-08-01 02:22:00,
2013-07-31 21:32:00,70.0,69.0,-100.00,ESE,119,1.0,2.0,97,0.00,,,-99.99,1.000000,,2013-08-01 02:32:00,
2013-07-31 21:43:00,70.0,69.0,-100.00,ESE,119,1.0,2.0,97,0.00,,,-99.99,1.000000,,2013-08-01 02:43:00,
2013-07-31 22:22:00,70.0,69.0,-100.00,SSE,150,0.0,2.0,98,0.00,,,-99.99,0.000000,,2013-08-01 03:22:00,
2013-07-31 22:32:00,70.0,69.0,-100.00,SSE,150,0.0,2.0,98,0.00,,,-99.99,0.000000,,2013-08-01 03:32:00,
2013-07-31 22:43:00,70.0,69.0,-100.00,SSE,150,0.0,2.0,98,0.00,,,-99.99,0.000000,,2013-08-01 03:43:00,
2013-07-31 23:13:00,69.0,68.0,-100.00,SSW,213,1.0,2.0,98,0.00,,,-99.99,0.000000,,2013-08-01 04:13:00,
2013-07-31 23:22:00,69.0,68.0,-100.00,SSW,213,1.0,2.0,98,0.00,,,-99.99,0.000000,,2013-08-01 04:22:00,
2013-07-31 23:33:00,69.0,68.0,-100.00,SSW,213,1.0,2.0,98,0.00,,,-99.99,0.000000,,2013-08-01 04:33:00,
2013-07-31 23:43:00,69.0,68.0,-100.00,SSW,213,1.0,2.0,98,0.00,,,-99.99,0.000000,,2013-08-01 04:43:00,